STARLINK-34204, 66213

Orbit data source: Space-Track

STARLINK-34204, 66213 is a payload satellite owned by SpaceX/Seattle (US) in LEO that was launched on Tue, 28 Oct 2025 UTC via an FALCON 9 launch vehicle from the Air Force Western Test Range (AFWTR). Payload-class satellites include a variety of spacecraft equipped with specific instruments for various scientific and technological missions. These include communications satellites like Starlink; space stations such as the ISS; scientific satellites like the Hubble; Earth observation satellites from companies like Planet Labs, Umbra, and HawkEye 360; GPS; miniature CubeSats for education and research; and military/defense satellites.

Loading next visibility...
Identifier
66213, 2025-244H
Orbit
LEO
Country
Flag of USUS
Related business
Manufacturer
SpaceX/Seattle
Mission
Operational Commercial Communications
Bus & Motor
STARLINK V2MO, Unknown motor
Mass
575 kg wet, ~530 kg dry
Launch date (UTC)
2025-10-28 (8 months ago)
Launch vehicle
FALCON 9
Launch site
Air Force Western Test Range (AFWTR)
Object type
Payload
Rocket body
Debris
Shape & HBR
Box + 2 Pan, 17.7 m
Radar Cross Section
36.964 m², Large (>1 m²)

Expand to show TLE details & history
Last TLE update: 1 day ago

TLE from 1 day ago
0 STARLINK-34204
1 66213U 25244H   26170.57686279  .00039607  00000-0  13386-2 0  9999
2 66213  53.1608 116.3196 0002615 146.1546 213.9622 15.30286746 37266
Epoch: 2026-06-19T13:50Z
TLE epoch observation values (Epoch: 2026-06-19T13:50:40.945Z)
Latitude
-0.00001°
Longitude
0.84514°
Altitude
477.342 km
Speed
7.627 km/s
True Right ascension
07h 45m 16s
True Declination
0° 00' 00"
Sunlit
Object was in daylight at epoch
Visualization orbit readout
Latitude
Unknown
Longitude
Unknown
Altitude
Unknown
Speed
Unknown
Apparent Right ascension
Unknown
Apparent Declination
Unknown
Sunlit
N/A
Visualization observer readout
Local Sidereal Time
07:18:29
Azimuth
Unknown
Elevation
Unknown
Doppler factor
Unknown
Orbital elements
Apogee altitude
477.005 km
Perigee altitude
473.42 km
Semi-major axis
6,853.349 km
Eccentricity
0.00026
Inclination
53.1608°
RAAN
116.3196°
Arg. of periapsis
146.1546°
True anomaly
213.94546°
Mean anomaly
213.9622°
Eccentric anomaly
213.95383°
Mean motion
3.82551 °/min
Orbital period
94.11 mins
BSTAR
0.0013386
Loading maneuver chart data...
Computing Atmospheric mass density...
Loading historical data...
Loading historical data...
Loading historical data...
Loading historical data...
Loading historical data...
Loading historical data...
Loading historical data...

Documentation

Showing up to 5 results
|